ステレオ彗星

P/2016 J3 ( STEREO )

English version
Home page
Updated on July 17, 2016

---------------------------------------------------------------------

・ プロフィール

発見日 2016年5月11日
発見光度 10等
発見者 Scott Ferguson (HI-1 images, STEREO-A spacecraft)

・ 写真集

・ 軌道要素

T 2016 May 21.44761 TT                                  MPCW
q   0.4669363            (2000.0)            P               Q
n   0.12784370     Peri.  210.73788     -0.28962000     -0.86007886
a   3.9025622      Node   259.00850     +0.94191731     -0.17816014
e   0.8803513      Incl.   25.32993     +0.17003541     -0.47804112
P   7.71
From 117 observations 2016 May 11-13.  Orbit uncertain.

・ 星図

・ 光度変化

        m1 = 15.0 + 5 logΔ + 10.0 log r

---------------------------------------------------------------------

軌道要素はM.P.E.C. 2016-K41に掲載されたものです。
星図はステラナビゲータ Ver.10 (アストロアーツ) で作成したものです。
光度グラフはComet for Windowsで作成したものです。

---------------------------------------------------------------------

Copyright(C) Seiichi Yoshida (comet@aerith.net). All rights reserved.